owner,sensor,date,latitude,longitude,vertical_datum,sea_water_practical_salinity,qcFlag 
SCCF RECON,ioos:station:SCCF:56:1,2016-09-01T00:00:00Z,26.4645,-82.1044,1.42,28.17,1111122 
SCCF RECON,ioos:station:SCCF:56:1,2016-09-01T01:00:00Z,26.4645,-82.1044,1.48,27.7,1111122 
SCCF RECON,ioos:station:SCCF:56:1,2016-09-01T02:00:00Z,26.4645,-82.1044,1.67,32.62,1111122 
SCCF RECON,ioos:station:SCCF:56:1,2016-09-01T03:00:00Z,26.4645,-82.1044,1.81,32.42,1111122 
SCCF RECON,ioos:station:SCCF:56:1,2016-09-01T04:00:00Z,26.4645,-82.1044,1.87,32.49,1111122 
SCCF RECON,ioos:station:SCCF:56:1,2016-09-01T05:00:00Z,26.4645,-82.1044,1.902,32.55,1111122 
SCCF RECON,ioos:station:SCCF:56:1,2016-09-01T06:00:00Z,26.4645,-82.1044,1.95,32.59,1111122 
SCCF RECON,ioos:station:SCCF:56:1,2016-09-01T07:00:00Z,26.4645,-82.1044,1.922,32.51,1111122 
SCCF RECON,ioos:station:SCCF:56:1,2016-09-01T08:00:00Z,26.4645,-82.1044,1.89,32.55,1111122 
SCCF RECON,ioos:station:SCCF:56:1,2016-09-01T09:00:00Z,26.4645,-82.1044,1.801,32.34,1111122 
SCCF RECON,ioos:station:SCCF:56:1,2016-09-01T10:00:00Z,26.4645,-82.1044,1.7,31.27,1111122 
SCCF RECON,ioos:station:SCCF:56:1,2016-09-01T11:00:00Z,26.4645,-82.1044,1.64,30.87,1111122 
SCCF RECON,ioos:station:SCCF:56:1,2016-09-01T12:00:00Z,26.4645,-82.1044,1.61,29.93,1111122 
SCCF RECON,ioos:station:SCCF:56:1,2016-09-01T13:00:00Z,26.4645,-82.1044,1.68,31.34,1111122 
SCCF RECON,ioos:station:SCCF:56:1,2016-09-01T14:00:00Z,26.4645,-82.1044,1.82,32.03,1111122 
SCCF RECON,ioos:station:SCCF:56:1,2016-09-01T15:00:00Z,26.4645,-82.1044,1.95,32.44,1111122 
SCCF RECON,ioos:station:SCCF:56:1,2016-09-01T16:00:00Z,26.4645,-82.1044,2.076,32.52,1111122 
SCCF RECON,ioos:station:SCCF:56:1,2016-09-01T17:00:00Z,26.4645,-82.1044,2.143,32.36,1111122 
SCCF RECON,ioos:station:SCCF:56:1,2016-09-01T18:00:00Z,26.4645,-82.1044,2.19,32.66,1111122 
SCCF RECON,ioos:station:SCCF:56:1,2016-09-01T19:00:00Z,26.4645,-82.1044,2.2,32.6,1111122 
SCCF RECON,ioos:station:SCCF:56:1,2016-09-01T20:00:00Z,26.4645,-82.1044,2.13,32.32,1111122 
SCCF RECON,ioos:station:SCCF:56:1,2016-09-01T21:00:00Z,26.4645,-82.1044,2.02,32.26,1111122 
SCCF RECON,ioos:station:SCCF:56:1,2016-09-01T22:00:00Z,26.4645,-82.1044,1.91,31.93,1111122 
SCCF RECON,ioos:station:SCCF:56:1,2016-09-01T23:00:00Z,26.4645,-82.1044,1.8,31.72,1111122 
SCCF RECON,ioos:station:SCCF:56:1,2016-09-02T00:00:00Z,26.4645,-82.1044,1.647,31.15,1111122 
SCCF RECON,ioos:station:SCCF:56:1,2016-09-02T01:00:00Z,26.4645,-82.1044,1.62,30.61,1111122 
SCCF RECON,ioos:station:SCCF:56:1,2016-09-02T02:00:00Z,26.4645,-82.1044,1.712,31.18,1111122 
SCCF RECON,ioos:station:SCCF:56:1,2016-09-02T03:00:00Z,26.4645,-82.1044,1.864,33.0,1111122 
SCCF RECON,ioos:station:SCCF:56:1,2016-09-02T04:00:00Z,26.4645,-82.1044,1.97,33.15,1111122 
SCCF RECON,ioos:station:SCCF:56:1,2016-09-02T05:00:00Z,26.4645,-82.1044,2.058,33.15,1111122 
SCCF RECON,ioos:station:SCCF:56:1,2016-09-02T06:00:00Z,26.4645,-82.1044,2.077,33.12,1111122 
SCCF RECON,ioos:station:SCCF:56:1,2016-09-02T07:00:00Z,26.4645,-82.1044,2.08,32.93,1111122 
SCCF RECON,ioos:station:SCCF:56:1,2016-09-02T08:00:00Z,26.4645,-82.1044,2.052,32.82,1111122 
SCCF RECON,ioos:station:SCCF:56:1,2016-09-02T09:00:00Z,26.4645,-82.1044,1.943,32.69,1111122 
SCCF RECON,ioos:station:SCCF:56:1,2016-09-02T10:00:00Z,26.4645,-82.1044,1.838,32.6,1111122 
SCCF RECON,ioos:station:SCCF:56:1,2016-09-02T11:00:00Z,26.4645,-82.1044,1.757,32.15,1111122 
SCCF RECON,ioos:station:SCCF:56:1,2016-09-02T12:00:00Z,26.4645,-82.1044,1.71,31.41,1111122 
SCCF RECON,ioos:station:SCCF:56:1,2016-09-02T13:00:00Z,26.4645,-82.1044,1.7,31.11,1111122 
SCCF RECON,ioos:station:SCCF:56:1,2016-09-02T14:00:00Z,26.4645,-82.1044,1.79,31.57,1111122 
SCCF RECON,ioos:station:SCCF:56:1,2016-09-02T15:00:00Z,26.4645,-82.1044,1.9,33.11,1111122 
SCCF RECON,ioos:station:SCCF:56:1,2016-09-02T16:00:00Z,26.4645,-82.1044,2.085,33.31,1111122 
SCCF RECON,ioos:station:SCCF:56:1,2016-09-02T17:00:00Z,26.4645,-82.1044,2.117,33.35,1111122 
SCCF RECON,ioos:station:SCCF:56:1,2016-09-02T18:00:00Z,26.4645,-82.1044,2.05,33.06,1111122 
SCCF RECON,ioos:station:SCCF:56:1,2016-09-02T19:00:00Z,26.4645,-82.1044,1.992,32.58,1111122 
SCCF RECON,ioos:station:SCCF:56:1,2016-09-02T20:00:00Z,26.4645,-82.1044,1.91,32.24,1111122 
SCCF RECON,ioos:station:SCCF:56:1,2016-09-02T21:00:00Z,26.4645,-82.1044,1.795,31.58,1111122 
SCCF RECON,ioos:station:SCCF:56:1,2016-09-02T22:00:00Z,26.4645,-82.1044,1.655,30.38,1111122 
SCCF RECON,ioos:station:SCCF:56:1,2016-09-02T23:00:00Z,26.4645,-82.1044,1.536,29.22,1111122 
SCCF RECON,ioos:station:SCCF:56:1,2016-09-03T00:00:00Z,26.4645,-82.1044,1.461,28.5,1111122 
SCCF RECON,ioos:station:SCCF:56:1,2016-09-03T01:00:00Z,26.4645,-82.1044,1.4,27.98,1111122 
SCCF RECON,ioos:station:SCCF:56:1,2016-09-03T02:00:00Z,26.4645,-82.1044,1.41,27.5,1111122 
SCCF RECON,ioos:station:SCCF:56:1,2016-09-03T03:00:00Z,26.4645,-82.1044,1.53,28.19,1111122 
SCCF RECON,ioos:station:SCCF:56:1,2016-09-03T04:00:00Z,26.4645,-82.1044,1.7,32.48,1111122 
SCCF RECON,ioos:station:SCCF:56:1,2016-09-03T05:00:00Z,26.4645,-82.1044,1.819,32.5,1111122 
SCCF RECON,ioos:station:SCCF:56:1,2016-09-03T06:00:00Z,26.4645,-82.1044,1.92,32.25,1111122 
SCCF RECON,ioos:station:SCCF:56:1,2016-09-03T07:00:00Z,26.4645,-82.1044,1.95,32.26,1111122 
SCCF RECON,ioos:station:SCCF:56:1,2016-09-03T08:00:00Z,26.4645,-82.1044,1.84,32.07,1111122 
SCCF RECON,ioos:station:SCCF:56:1,2016-09-03T09:00:00Z,26.4645,-82.1044,1.7,31.68,1111122 
SCCF RECON,ioos:station:SCCF:56:1,2016-09-03T10:00:00Z,26.4645,-82.1044,1.61,31.05,1111122 
SCCF RECON,ioos:station:SCCF:56:1,2016-09-03T11:00:00Z,26.4645,-82.1044,1.51,30.27,1111122 
SCCF RECON,ioos:station:SCCF:56:1,2016-09-03T12:00:00Z,26.4645,-82.1044,1.41,29.36,1111122 
SCCF RECON,ioos:station:SCCF:56:1,2016-09-03T13:00:00Z,26.4645,-82.1044,1.35,28.68,1111122 
SCCF RECON,ioos:station:SCCF:56:1,2016-09-03T14:00:00Z,26.4645,-82.1044,1.384,28.61,1111122 
SCCF RECON,ioos:station:SCCF:56:1,2016-09-03T15:00:00Z,26.4645,-82.1044,1.54,30.93,1111122 
SCCF RECON,ioos:station:SCCF:56:1,2016-09-03T16:00:00Z,26.4645,-82.1044,1.72,31.76,1111122 
SCCF RECON,ioos:station:SCCF:56:1,2016-09-03T17:00:00Z,26.4645,-82.1044,1.839,32.0,1111122 
SCCF RECON,ioos:station:SCCF:56:1,2016-09-03T18:00:00Z,26.4645,-82.1044,1.916,32.15,1111122 
SCCF RECON,ioos:station:SCCF:56:1,2016-09-03T19:00:00Z,26.4645,-82.1044,1.96,30.97,1111122 
SCCF RECON,ioos:station:SCCF:56:1,2016-09-03T20:00:00Z,26.4645,-82.1044,1.92,31.83,1111122 
SCCF RECON,ioos:station:SCCF:56:1,2016-09-03T21:00:00Z,26.4645,-82.1044,1.82,31.9,1111122 
SCCF RECON,ioos:station:SCCF:56:1,2016-09-03T22:00:00Z,26.4645,-82.1044,1.71,31.56,1111122 
SCCF RECON,ioos:station:SCCF:56:1,2016-09-03T23:00:00Z,26.4645,-82.1044,1.612,31.31,1111122 
SCCF RECON,ioos:station:SCCF:56:1,2016-09-04T00:00:00Z,26.4645,-82.1044,1.51,30.58,1111122 
SCCF RECON,ioos:station:SCCF:56:1,2016-09-04T01:00:00Z,26.4645,-82.1044,1.45,30.15,1111122 
SCCF RECON,ioos:station:SCCF:56:1,2016-09-04T02:00:00Z,26.4645,-82.1044,1.44,29.58,1111122 
SCCF RECON,ioos:station:SCCF:56:1,2016-09-04T03:00:00Z,26.4645,-82.1044,1.53,30.03,1111122 
SCCF RECON,ioos:station:SCCF:56:1,2016-09-04T04:00:00Z,26.4645,-82.1044,1.66,30.68,1111122 
SCCF RECON,ioos:station:SCCF:56:1,2016-09-04T05:00:00Z,26.4645,-82.1044,1.8,30.85,1111122 
SCCF RECON,ioos:station:SCCF:56:1,2016-09-04T06:00:00Z,26.4645,-82.1044,1.88,30.55,1111122 
SCCF RECON,ioos:station:SCCF:56:1,2016-09-04T07:00:00Z,26.4645,-82.1044,1.91,30.38,1111122 
SCCF RECON,ioos:station:SCCF:56:1,2016-09-04T08:00:00Z,26.4645,-82.1044,1.883,30.49,1111122 
SCCF RECON,ioos:station:SCCF:56:1,2016-09-04T09:00:00Z,26.4645,-82.1044,1.818,30.45,1111122 
SCCF RECON,ioos:station:SCCF:56:1,2016-09-04T10:00:00Z,26.4645,-82.1044,1.7,30.62,1111122 
SCCF RECON,ioos:station:SCCF:56:1,2016-09-04T11:00:00Z,26.4645,-82.1044,1.588,30.47,1111122 
SCCF RECON,ioos:station:SCCF:56:1,2016-09-04T12:00:00Z,26.4645,-82.1044,1.49,30.09,1111122 
SCCF RECON,ioos:station:SCCF:56:1,2016-09-04T13:00:00Z,26.4645,-82.1044,1.401,29.76,1111122 
SCCF RECON,ioos:station:SCCF:56:1,2016-09-04T14:00:00Z,26.4645,-82.1044,1.35,29.32,1111122 
SCCF RECON,ioos:station:SCCF:56:1,2016-09-04T15:00:00Z,26.4645,-82.1044,1.39,29.41,1111122 
SCCF RECON,ioos:station:SCCF:56:1,2016-09-04T16:00:00Z,26.4645,-82.1044,1.56,29.56,1111122 
SCCF RECON,ioos:station:SCCF:56:1,2016-09-04T17:00:00Z,26.4645,-82.1044,1.728,29.72,1111122 
SCCF RECON,ioos:station:SCCF:56:1,2016-09-04T18:00:00Z,26.4645,-82.1044,1.83,29.61,1111122 
SCCF RECON,ioos:station:SCCF:56:1,2016-09-04T19:00:00Z,26.4645,-82.1044,1.89,30.04,1111122 
SCCF RECON,ioos:station:SCCF:56:1,2016-09-04T20:00:00Z,26.4645,-82.1044,1.883,29.77,1111122 
SCCF RECON,ioos:station:SCCF:56:1,2016-09-04T21:00:00Z,26.4645,-82.1044,1.8,29.76,1111122 
SCCF RECON,ioos:station:SCCF:56:1,2016-09-04T22:00:00Z,26.4645,-82.1044,1.723,29.62,1111122 
SCCF RECON,ioos:station:SCCF:56:1,2016-09-04T23:00:00Z,26.4645,-82.1044,1.64,29.55,1111122 
SCCF RECON,ioos:station:SCCF:56:1,2016-09-05T00:00:00Z,26.4645,-82.1044,1.57,29.5,1111122 
SCCF RECON,ioos:station:SCCF:56:1,2016-09-05T01:00:00Z,26.4645,-82.1044,1.52,29.39,1111122 
SCCF RECON,ioos:station:SCCF:56:1,2016-09-05T02:00:00Z,26.4645,-82.1044,1.48,29.29,1111122 
SCCF RECON,ioos:station:SCCF:56:1,2016-09-05T03:00:00Z,26.4645,-82.1044,1.49,29.18,1111122 
SCCF RECON,ioos:station:SCCF:56:1,2016-09-05T04:00:00Z,26.4645,-82.1044,1.58,28.65,1111122 
SCCF RECON,ioos:station:SCCF:56:1,2016-09-05T05:00:00Z,26.4645,-82.1044,1.69,28.5,1111122 
SCCF RECON,ioos:station:SCCF:56:1,2016-09-05T06:00:00Z,26.4645,-82.1044,1.79,28.68,1111122 
SCCF RECON,ioos:station:SCCF:56:1,2016-09-05T07:00:00Z,26.4645,-82.1044,1.87,28.61,1111122 
SCCF RECON,ioos:station:SCCF:56:1,2016-09-05T08:00:00Z,26.4645,-82.1044,1.88,28.65,1111122 
SCCF RECON,ioos:station:SCCF:56:1,2016-09-05T09:00:00Z,26.4645,-82.1044,1.84,28.91,1111122 
SCCF RECON,ioos:station:SCCF:56:1,2016-09-05T10:00:00Z,26.4645,-82.1044,1.77,28.58,1111122 
SCCF RECON,ioos:station:SCCF:56:1,2016-09-05T11:00:00Z,26.4645,-82.1044,1.68,28.75,1111122 
SCCF RECON,ioos:station:SCCF:56:1,2016-09-05T12:00:00Z,26.4645,-82.1044,1.6,28.83,1111122 
SCCF RECON,ioos:station:SCCF:56:1,2016-09-05T13:00:00Z,26.4645,-82.1044,1.494,28.9,1111122 
SCCF RECON,ioos:station:SCCF:56:1,2016-09-05T14:00:00Z,26.4645,-82.1044,1.429,28.94,1111122 
SCCF RECON,ioos:station:SCCF:56:1,2016-09-05T15:00:00Z,26.4645,-82.1044,1.41,28.91,1111122 
SCCF RECON,ioos:station:SCCF:56:1,2016-09-05T16:00:00Z,26.4645,-82.1044,1.461,28.91,1111122 
SCCF RECON,ioos:station:SCCF:56:1,2016-09-05T17:00:00Z,26.4645,-82.1044,1.59,28.24,1111122 
SCCF RECON,ioos:station:SCCF:56:1,2016-09-05T18:00:00Z,26.4645,-82.1044,1.723,28.14,1111122 
SCCF RECON,ioos:station:SCCF:56:1,2016-09-05T19:00:00Z,26.4645,-82.1044,1.82,28.51,1111122 
SCCF RECON,ioos:station:SCCF:56:1,2016-09-05T20:00:00Z,26.4645,-82.1044,1.86,28.67,1111122 
SCCF RECON,ioos:station:SCCF:56:1,2016-09-05T21:00:00Z,26.4645,-82.1044,1.85,28.65,1111122 
SCCF RECON,ioos:station:SCCF:56:1,2016-09-05T22:00:00Z,26.4645,-82.1044,1.82,28.74,1111122 
SCCF RECON,ioos:station:SCCF:56:1,2016-09-05T23:00:00Z,26.4645,-82.1044,1.76,28.3,1111122 
SCCF RECON,ioos:station:SCCF:56:1,2016-09-06T00:00:00Z,26.4645,-82.1044,1.708,28.57,1111122 
SCCF RECON,ioos:station:SCCF:56:1,2016-09-06T01:00:00Z,26.4645,-82.1044,1.602,28.43,1111122 
SCCF RECON,ioos:station:SCCF:56:1,2016-09-06T02:00:00Z,26.4645,-82.1044,1.54,28.16,1111122 
SCCF RECON,ioos:station:SCCF:56:1,2016-09-06T03:00:00Z,26.4645,-82.1044,1.46,28.02,1111122 
SCCF RECON,ioos:station:SCCF:56:1,2016-09-06T04:00:00Z,26.4645,-82.1044,1.49,27.96,1111122 
SCCF RECON,ioos:station:SCCF:56:1,2016-09-06T05:00:00Z,26.4645,-82.1044,1.62,26.13,1111122 
SCCF RECON,ioos:station:SCCF:56:1,2016-09-06T06:00:00Z,26.4645,-82.1044,1.75,25.91,1111122 
SCCF RECON,ioos:station:SCCF:56:1,2016-09-06T07:00:00Z,26.4645,-82.1044,1.868,26.3,1111122 
SCCF RECON,ioos:station:SCCF:56:1,2016-09-06T08:00:00Z,26.4645,-82.1044,1.95,26.53,1111122 
SCCF RECON,ioos:station:SCCF:56:1,2016-09-06T09:00:00Z,26.4645,-82.1044,1.95,26.82,1111122 
SCCF RECON,ioos:station:SCCF:56:1,2016-09-06T10:00:00Z,26.4645,-82.1044,1.86,26.56,1111122 
SCCF RECON,ioos:station:SCCF:56:1,2016-09-06T11:00:00Z,26.4645,-82.1044,1.75,26.59,1111122 
SCCF RECON,ioos:station:SCCF:56:1,2016-09-06T12:00:00Z,26.4645,-82.1044,1.69,26.68,1111122 
SCCF RECON,ioos:station:SCCF:56:1,2016-09-06T13:00:00Z,26.4645,-82.1044,1.62,26.83,1111122 
SCCF RECON,ioos:station:SCCF:56:1,2016-09-06T14:00:00Z,26.4645,-82.1044,1.53,27.06,1111122 
SCCF RECON,ioos:station:SCCF:56:1,2016-09-06T15:00:00Z,26.4645,-82.1044,1.486,27.12,1111122 
SCCF RECON,ioos:station:SCCF:56:1,2016-09-06T16:00:00Z,26.4645,-82.1044,1.49,27.14,1111122 
SCCF RECON,ioos:station:SCCF:56:1,2016-09-06T17:00:00Z,26.4645,-82.1044,1.57,26.32,1111122 
SCCF RECON,ioos:station:SCCF:56:1,2016-09-06T18:00:00Z,26.4645,-82.1044,1.68,26.03,1111122 
SCCF RECON,ioos:station:SCCF:56:1,2016-09-06T19:00:00Z,26.4645,-82.1044,1.78,25.96,1111122 
SCCF RECON,ioos:station:SCCF:56:1,2016-09-06T20:00:00Z,26.4645,-82.1044,1.85,26.07,1111122 
SCCF RECON,ioos:station:SCCF:56:1,2016-09-06T21:00:00Z,26.4645,-82.1044,1.86,26.09,1111122 
SCCF RECON,ioos:station:SCCF:56:1,2016-09-06T22:00:00Z,26.4645,-82.1044,1.81,26.54,1111122 
SCCF RECON,ioos:station:SCCF:56:1,2016-09-06T23:00:00Z,26.4645,-82.1044,1.75,26.33,1111122 
SCCF RECON,ioos:station:SCCF:56:1,2016-09-07T00:00:00Z,26.4645,-82.1044,1.71,26.27,1111122 
SCCF RECON,ioos:station:SCCF:56:1,2016-09-07T01:00:00Z,26.4645,-82.1044,1.68,26.22,1111122 
SCCF RECON,ioos:station:SCCF:56:1,2016-09-07T02:00:00Z,26.4645,-82.1044,1.625,26.16,1111122 
SCCF RECON,ioos:station:SCCF:56:1,2016-09-07T03:00:00Z,26.4645,-82.1044,1.57,26.34,1111122 
SCCF RECON,ioos:station:SCCF:56:1,2016-09-07T04:00:00Z,26.4645,-82.1044,1.57,26.36,1111122 
SCCF RECON,ioos:station:SCCF:56:1,2016-09-07T05:00:00Z,26.4645,-82.1044,1.631,24.64,1111122 
SCCF RECON,ioos:station:SCCF:56:1,2016-09-07T06:00:00Z,26.4645,-82.1044,1.732,24.04,1111122 
SCCF RECON,ioos:station:SCCF:56:1,2016-09-07T07:00:00Z,26.4645,-82.1044,1.81,24.08,1111122 
SCCF RECON,ioos:station:SCCF:56:1,2016-09-07T08:00:00Z,26.4645,-82.1044,1.88,24.3,1111122 
SCCF RECON,ioos:station:SCCF:56:1,2016-09-07T09:00:00Z,26.4645,-82.1044,1.896,24.21,1111122 
SCCF RECON,ioos:station:SCCF:56:1,2016-09-07T10:00:00Z,26.4645,-82.1044,1.86,24.6,1111122 
SCCF RECON,ioos:station:SCCF:56:1,2016-09-07T11:00:00Z,26.4645,-82.1044,1.81,24.45,1111122 
SCCF RECON,ioos:station:SCCF:56:1,2016-09-07T12:00:00Z,26.4645,-82.1044,1.76,24.54,1111122 
SCCF RECON,ioos:station:SCCF:56:1,2016-09-07T13:00:00Z,26.4645,-82.1044,1.697,24.71,1111122 
SCCF RECON,ioos:station:SCCF:56:1,2016-09-07T14:00:00Z,26.4645,-82.1044,1.6,25.11,1111122 
SCCF RECON,ioos:station:SCCF:56:1,2016-09-07T15:00:00Z,26.4645,-82.1044,1.52,25.43,1111122 
SCCF RECON,ioos:station:SCCF:56:1,2016-09-07T16:00:00Z,26.4645,-82.1044,1.47,25.55,1111122 
SCCF RECON,ioos:station:SCCF:56:1,2016-09-07T17:00:00Z,26.4645,-82.1044,1.47,25.76,1111122 
SCCF RECON,ioos:station:SCCF:56:1,2016-09-07T18:00:00Z,26.4645,-82.1044,1.54,24.85,1111122 
SCCF RECON,ioos:station:SCCF:56:1,2016-09-07T19:00:00Z,26.4645,-82.1044,1.63,23.97,1111122 
SCCF RECON,ioos:station:SCCF:56:1,2016-09-07T20:00:00Z,26.4645,-82.1044,1.74,23.66,1111122 
SCCF RECON,ioos:station:SCCF:56:1,2016-09-07T21:00:00Z,26.4645,-82.1044,1.76,23.85,1111122 
SCCF RECON,ioos:station:SCCF:56:1,2016-09-07T22:00:00Z,26.4645,-82.1044,1.732,24.01,1111122 
SCCF RECON,ioos:station:SCCF:56:1,2016-09-07T23:00:00Z,26.4645,-82.1044,1.71,23.94,1111122 
SCCF RECON,ioos:station:SCCF:56:1,2016-09-08T00:00:00Z,26.4645,-82.1044,1.681,24.08,1111122 
SCCF RECON,ioos:station:SCCF:56:1,2016-09-08T01:00:00Z,26.4645,-82.1044,1.66,24.03,1111122 
SCCF RECON,ioos:station:SCCF:56:1,2016-09-08T02:00:00Z,26.4645,-82.1044,1.621,24.15,1111122 
SCCF RECON,ioos:station:SCCF:56:1,2016-09-08T03:00:00Z,26.4645,-82.1044,1.591,24.36,1111122 
SCCF RECON,ioos:station:SCCF:56:1,2016-09-08T04:00:00Z,26.4645,-82.1044,1.609,24.1,1111122 
SCCF RECON,ioos:station:SCCF:56:1,2016-09-08T05:00:00Z,26.4645,-82.1044,1.65,22.83,1111122 
SCCF RECON,ioos:station:SCCF:56:1,2016-09-08T06:00:00Z,26.4645,-82.1044,1.69,22.48,1111122 
SCCF RECON,ioos:station:SCCF:56:1,2016-09-08T07:00:00Z,26.4645,-82.1044,1.73,22.57,1111122 
SCCF RECON,ioos:station:SCCF:56:1,2016-09-08T08:00:00Z,26.4645,-82.1044,1.8,22.69,1111122 
SCCF RECON,ioos:station:SCCF:56:1,2016-09-08T09:00:00Z,26.4645,-82.1044,1.84,22.67,1111122 
SCCF RECON,ioos:station:SCCF:56:1,2016-09-08T10:00:00Z,26.4645,-82.1044,1.862,22.53,1111122 
SCCF RECON,ioos:station:SCCF:56:1,2016-09-08T11:00:00Z,26.4645,-82.1044,1.82,22.94,1111122 
SCCF RECON,ioos:station:SCCF:56:1,2016-09-08T12:00:00Z,26.4645,-82.1044,1.77,23.0,1111122 
SCCF RECON,ioos:station:SCCF:56:1,2016-09-08T13:00:00Z,26.4645,-82.1044,1.7,23.2,1111122 
SCCF RECON,ioos:station:SCCF:56:1,2016-09-08T14:00:00Z,26.4645,-82.1044,1.6,23.61,1111122 
SCCF RECON,ioos:station:SCCF:56:1,2016-09-08T15:00:00Z,26.4645,-82.1044,1.51,23.91,1111122 
SCCF RECON,ioos:station:SCCF:56:1,2016-09-08T16:00:00Z,26.4645,-82.1044,1.439,24.16,1111122 
SCCF RECON,ioos:station:SCCF:56:1,2016-09-08T17:00:00Z,26.4645,-82.1044,1.39,24.74,1111122 
SCCF RECON,ioos:station:SCCF:56:1,2016-09-08T18:00:00Z,26.4645,-82.1044,1.4,24.76,1111122 
SCCF RECON,ioos:station:SCCF:56:1,2016-09-08T19:00:00Z,26.4645,-82.1044,1.48,21.32,1111122 
SCCF RECON,ioos:station:SCCF:56:1,2016-09-08T20:00:00Z,26.4645,-82.1044,1.595,19.81,1111122 
SCCF RECON,ioos:station:SCCF:56:1,2016-09-08T21:00:00Z,26.4645,-82.1044,1.635,20.0,1111122 
SCCF RECON,ioos:station:SCCF:56:1,2016-09-08T22:00:00Z,26.4645,-82.1044,1.67,20.4,1111122 
SCCF RECON,ioos:station:SCCF:56:1,2016-09-08T23:00:00Z,26.4645,-82.1044,1.66,21.27,1111122 
SCCF RECON,ioos:station:SCCF:56:1,2016-09-09T00:00:00Z,26.4645,-82.1044,1.69,21.25,1111122 
SCCF RECON,ioos:station:SCCF:56:1,2016-09-09T01:00:00Z,26.4645,-82.1044,1.71,20.67,1111122 
SCCF RECON,ioos:station:SCCF:56:1,2016-09-09T02:00:00Z,26.4645,-82.1044,1.73,20.59,1111122 
SCCF RECON,ioos:station:SCCF:56:1,2016-09-09T03:00:00Z,26.4645,-82.1044,1.72,20.78,1111122 
SCCF RECON,ioos:station:SCCF:56:1,2016-09-09T04:00:00Z,26.4645,-82.1044,1.69,21.75,1111122 
SCCF RECON,ioos:station:SCCF:56:1,2016-09-09T05:00:00Z,26.4645,-82.1044,1.67,21.4,1111122 
SCCF RECON,ioos:station:SCCF:56:1,2016-09-09T06:00:00Z,26.4645,-82.1044,1.66,21.14,1111122 
SCCF RECON,ioos:station:SCCF:56:1,2016-09-09T07:00:00Z,26.4645,-82.1044,1.69,20.92,1111122 
SCCF RECON,ioos:station:SCCF:56:1,2016-09-09T08:00:00Z,26.4645,-82.1044,1.76,20.58,1111122 
SCCF RECON,ioos:station:SCCF:56:1,2016-09-09T09:00:00Z,26.4645,-82.1044,1.83,20.72,1111122 
SCCF RECON,ioos:station:SCCF:56:1,2016-09-09T10:00:00Z,26.4645,-82.1044,1.86,20.81,1111122 
SCCF RECON,ioos:station:SCCF:56:1,2016-09-09T11:00:00Z,26.4645,-82.1044,1.85,20.84,1111122 
SCCF RECON,ioos:station:SCCF:56:1,2016-09-09T12:00:00Z,26.4645,-82.1044,1.81,20.84,1111122 
SCCF RECON,ioos:station:SCCF:56:1,2016-09-09T13:00:00Z,26.4645,-82.1044,1.76,20.96,1111122 
SCCF RECON,ioos:station:SCCF:56:1,2016-09-09T14:00:00Z,26.4645,-82.1044,1.71,21.14,1111122 
SCCF RECON,ioos:station:SCCF:56:1,2016-09-09T15:00:00Z,26.4645,-82.1044,1.633,21.39,1111122 
SCCF RECON,ioos:station:SCCF:56:1,2016-09-09T16:00:00Z,26.4645,-82.1044,1.53,21.81,1111122 
SCCF RECON,ioos:station:SCCF:56:1,2016-09-09T17:00:00Z,26.4645,-82.1044,1.44,22.22,1111122 
SCCF RECON,ioos:station:SCCF:56:1,2016-09-09T18:00:00Z,26.4645,-82.1044,1.4,22.7,1111122 
SCCF RECON,ioos:station:SCCF:56:1,2016-09-09T19:00:00Z,26.4645,-82.1044,1.389,23.01,1111122 
SCCF RECON,ioos:station:SCCF:56:1,2016-09-09T20:00:00Z,26.4645,-82.1044,1.45,22.55,1111122 
SCCF RECON,ioos:station:SCCF:56:1,2016-09-09T21:00:00Z,26.4645,-82.1044,1.55,21.16,1111122 
SCCF RECON,ioos:station:SCCF:56:1,2016-09-09T22:00:00Z,26.4645,-82.1044,1.64,21.15,1111122 
SCCF RECON,ioos:station:SCCF:56:1,2016-09-09T23:00:00Z,26.4645,-82.1044,1.68,21.12,1111122 
SCCF RECON,ioos:station:SCCF:56:1,2016-09-10T00:00:00Z,26.4645,-82.1044,1.71,20.93,1111122 
SCCF RECON,ioos:station:SCCF:56:1,2016-09-10T01:00:00Z,26.4645,-82.1044,1.731,20.87,1111122 
SCCF RECON,ioos:station:SCCF:56:1,2016-09-10T02:00:00Z,26.4645,-82.1044,1.73,20.78,1111122 
SCCF RECON,ioos:station:SCCF:56:1,2016-09-10T03:00:00Z,26.4645,-82.1044,1.72,20.82,1111122 
SCCF RECON,ioos:station:SCCF:56:1,2016-09-10T04:00:00Z,26.4645,-82.1044,1.696,20.81,1111122 
SCCF RECON,ioos:station:SCCF:56:1,2016-09-10T05:00:00Z,26.4645,-82.1044,1.66,20.91,1111122 
SCCF RECON,ioos:station:SCCF:56:1,2016-09-10T06:00:00Z,26.4645,-82.1044,1.63,21.22,1111122 
SCCF RECON,ioos:station:SCCF:56:1,2016-09-10T07:00:00Z,26.4645,-82.1044,1.626,21.27,1111122 
SCCF RECON,ioos:station:SCCF:56:1,2016-09-10T08:00:00Z,26.4645,-82.1044,1.65,20.81,1111122 
SCCF RECON,ioos:station:SCCF:56:1,2016-09-10T09:00:00Z,26.4645,-82.1044,1.72,20.2,1111122 
SCCF RECON,ioos:station:SCCF:56:1,2016-09-10T10:00:00Z,26.4645,-82.1044,1.81,20.97,1111122 
SCCF RECON,ioos:station:SCCF:56:1,2016-09-10T11:00:00Z,26.4645,-82.1044,1.86,20.99,1111122 
SCCF RECON,ioos:station:SCCF:56:1,2016-09-10T12:00:00Z,26.4645,-82.1044,1.87,21.59,1111122 
SCCF RECON,ioos:station:SCCF:56:1,2016-09-10T13:00:00Z,26.4645,-82.1044,1.85,21.51,1111122 
SCCF RECON,ioos:station:SCCF:56:1,2016-09-10T14:00:00Z,26.4645,-82.1044,1.85,21.51,1111122 
SCCF RECON,ioos:station:SCCF:56:1,2016-09-10T15:00:00Z,26.4645,-82.1044,1.731,21.06,1111122 
SCCF RECON,ioos:station:SCCF:56:1,2016-09-10T16:00:00Z,26.4645,-82.1044,1.65,21.23,1111122 
SCCF RECON,ioos:station:SCCF:56:1,2016-09-10T17:00:00Z,26.4645,-82.1044,1.58,21.46,1111122 
SCCF RECON,ioos:station:SCCF:56:1,2016-09-10T18:00:00Z,26.4645,-82.1044,1.48,21.93,1111122 
SCCF RECON,ioos:station:SCCF:56:1,2016-09-10T19:00:00Z,26.4645,-82.1044,1.4,22.14,1111122 
SCCF RECON,ioos:station:SCCF:56:1,2016-09-10T20:00:00Z,26.4645,-82.1044,1.37,22.3,1111122 
SCCF RECON,ioos:station:SCCF:56:1,2016-09-10T21:00:00Z,26.4645,-82.1044,1.43,22.31,1111122 
SCCF RECON,ioos:station:SCCF:56:1,2016-09-10T22:00:00Z,26.4645,-82.1044,1.56,21.81,1111122 
SCCF RECON,ioos:station:SCCF:56:1,2016-09-10T23:00:00Z,26.4645,-82.1044,1.66,21.58,1111122 
SCCF RECON,ioos:station:SCCF:56:1,2016-09-11T00:00:00Z,26.4645,-82.1044,1.714,22.5,1111122 
SCCF RECON,ioos:station:SCCF:56:1,2016-09-11T01:00:00Z,26.4645,-82.1044,1.74,22.62,1111122 
SCCF RECON,ioos:station:SCCF:56:1,2016-09-11T02:00:00Z,26.4645,-82.1044,1.79,22.65,1111122 
SCCF RECON,ioos:station:SCCF:56:1,2016-09-11T03:00:00Z,26.4645,-82.1044,1.81,22.59,1111122 
SCCF RECON,ioos:station:SCCF:56:1,2016-09-11T04:00:00Z,26.4645,-82.1044,1.809,22.54,1111122 
SCCF RECON,ioos:station:SCCF:56:1,2016-09-11T05:00:00Z,26.4645,-82.1044,1.752,22.49,1111122 
SCCF RECON,ioos:station:SCCF:56:1,2016-09-11T06:00:00Z,26.4645,-82.1044,1.69,22.38,1111122 
SCCF RECON,ioos:station:SCCF:56:1,2016-09-11T07:00:00Z,26.4645,-82.1044,1.67,22.31,1111122 
SCCF RECON,ioos:station:SCCF:56:1,2016-09-11T08:00:00Z,26.4645,-82.1044,1.713,22.36,1111122 
SCCF RECON,ioos:station:SCCF:56:1,2016-09-11T09:00:00Z,26.4645,-82.1044,1.73,22.41,1111122 
SCCF RECON,ioos:station:SCCF:56:1,2016-09-11T10:00:00Z,26.4645,-82.1044,1.8,22.42,1111122 
SCCF RECON,ioos:station:SCCF:56:1,2016-09-11T11:00:00Z,26.4645,-82.1044,1.88,22.66,1111122 
SCCF RECON,ioos:station:SCCF:56:1,2016-09-11T12:00:00Z,26.4645,-82.1044,1.92,22.96,1111122 
SCCF RECON,ioos:station:SCCF:56:1,2016-09-11T13:00:00Z,26.4645,-82.1044,1.93,22.92,1111122 
SCCF RECON,ioos:station:SCCF:56:1,2016-09-11T14:00:00Z,26.4645,-82.1044,1.9,23.26,1111122 
SCCF RECON,ioos:station:SCCF:56:1,2016-09-11T15:00:00Z,26.4645,-82.1044,1.839,22.71,1111122 
SCCF RECON,ioos:station:SCCF:56:1,2016-09-11T16:00:00Z,26.4645,-82.1044,1.722,22.58,1111122 
SCCF RECON,ioos:station:SCCF:56:1,2016-09-11T17:00:00Z,26.4645,-82.1044,1.61,22.53,1111122 
SCCF RECON,ioos:station:SCCF:56:1,2016-09-11T18:00:00Z,26.4645,-82.1044,1.51,22.56,1111122 